T = 1992 Mar. 21.2096 TT Peri. = 307.0178 Node = 288.7876 2000.0 q = 0.198641 AU Incl. = 95.5547
m1 = 10.9 + 5 log d + 14.0 log r [ ,-15] ( - 1992 Mar. 6) m1 = 6.5 + 5 log d - 2 log r [-15, 0] (1992 Mar. 6 - 1992 Mar. 21) m1 = 22 + 5 log d + 20 log r [ 0, ] (1992 Mar. 21 - ) * Gray curve is: m1 = 10.9 + 5 log d + 14.0 log r